#timestamp,LO_Frequency,Hit,StdDev 
1456977615.8,286046996.3,N
1456977635.7,286046995.7,N
1456977655.5,286046993.6,N
1456977675.3,286046994.8,N
1456977695.2,286046988.5,Y
1456977715.9,286046996.4,P
1456977735.7,286046992.1,P
1456977755.6,286046992.8,P
1456977775.4,286046990.4,Y
1456977795.2,286046994.8,P
1456977815.1,286046991.9,P
1456977816.0,286046991.9,P
1456977835.8,286046994.3,Y
1456977855.6,286046998.3,P
1456977875.5,286046998.9,N
1456977895.3,286046999.7,N
1456977915.1,286047000.6,N
1456977935.9,286046998.6,N
1456977955.7,286047002.3,N
1456977975.5,286047003.1,N
1456977995.3,286047007.2,N
1456978015.2,286047004.7,N
1456978035.0,286047003.5,N
1456978035.9,286047003.5,N
1456978055.7,286047007.1,N
1456978075.6,286047004.7,N
1456978095.4,286047005.5,N
1456978115.2,286047005.8,N
1456978135.1,286047003.4,N
1456978136.0,286047003.4,N
1456978155.8,286047004.7,N
1456978175.6,286047006.1,N
1456978195.5,286047005.0,N
1456978215.3,286047008.4,N
1456978235.1,286047006.3,N
1456978255.9,286047009.0,N
1456978275.7,286047004.9,N
1456978295.5,286047007.1,N
1456978315.3,286047008.3,N
1456978335.2,286047010.7,N
1456978355.0,286047009.4,N
1456978355.9,286047009.4,N
1456978375.7,286047010.4,N
1456978395.6,286047012.0,Y
1456978415.4,286047006.1,P
1456978435.2,286047005.0,P
1456978455.1,286047006.2,P
1456978456.0,286047006.2,Y
1456978475.8,286047000.2,P
1456978495.7,286047000.2,N
1456978515.5,286047002.7,N
1456978535.3,286047001.0,N
1456978555.1,286047000.6,N
1456978575.9,286047000.6,N
1456978595.7,286046998.8,N
1456978615.5,286046997.0,N
1456978635.4,286046998.6,N
1456978655.2,286047002.3,N
1456978675.0,286047002.0,N
1456978675.9,286047002.0,N
1456978695.8,286047002.1,N
1456978715.6,286047005.6,N
1456978735.4,286047005.5,N
1456978755.3,286047005.8,N
1456978775.1,286047005.8,N
1456978776.0,286047005.8,N
1456978795.8,286047005.0,N
1456978815.7,286047005.7,N
1456978835.5,286047002.9,N
1456978855.3,286047004.5,N
1456978875.1,286047002.9,N
1456978895.9,286047005.7,N
1456978915.7,286047002.9,N
1456978935.5,286047004.1,N
1456978955.4,286047004.7,N
1456978975.2,286047005.3,N
1456978995.0,286047003.5,N
1456978995.9,286047003.5,N
1456979015.8,286047003.2,N
1456979035.6,286047003.1,N
1456979055.4,286047004.0,N
1456979075.3,286047002.7,N
1456979095.1,286046998.3,N
1456979096.0,286046998.3,N
1456979115.8,286047000.5,N
1456979135.7,286047002.5,N
1456979155.5,286046998.2,N
1456979175.3,286046999.8,N
1456979195.1,286047001.0,N
1456979215.9,286047002.8,N
1456979235.7,286046998.9,N
1456979255.5,286047000.8,N
1456979275.4,286047000.6,N
1456979295.2,286047001.5,N
1456979315.0,286047001.5,N
1456979315.9,286047001.5,N
1456979335.8,286047001.8,N
1456979355.6,286047002.1,N
1456979375.4,286047002.7,N
1456979395.3,286046999.1,N
1456979415.1,286046998.9,N
1456979416.0,286046998.9,N
1456979435.8,286047000.1,N
1456979455.7,286047001.9,N
1456979475.5,286047004.8,N
1456979495.3,286047006.3,Y
1456979515.2,286047006.5,P
1456979535.9,286047004.1,N
1456979555.7,286047001.4,N
1456979575.6,286047004.0,N
1456979595.4,286047001.8,N
1456979615.2,286047002.6,N
1456979635.1,286047002.3,N
1456979636.0,286047002.3,N
1456979655.8,286046999.5,N
1456979675.6,286046997.8,N
1456979695.5,286046993.3,Y
1456979715.3,286046992.9,P
1456979735.1,286046990.3,N
1456979755.9,286046994.2,N
1456979775.7,286046995.6,N
1456979795.5,286046995.6,N
1456979815.3,286046997.3,N
1456979835.2,286046995.9,N
1456979855.0,286046992.4,N
1456979855.9,286046992.4,N
1456979875.7,286046994.3,N
1456979895.6,286046993.8,N
1456979915.4,286046995.4,N
1456979935.2,286046996.0,N
1456979955.1,286046994.3,N
1456979956.0,286046994.3,N
1456979975.8,286046996.0,N
1456979995.6,286046994.3,N
1456980015.5,286046992.4,Y
1456980035.3,286046997.0,P
1456980055.1,286046999.5,N
1456980075.9,286046999.3,N
1456980095.7,286046998.7,N
1456980115.5,286046998.6,N
1456980135.4,286047000.6,N
1456980155.2,286046999.9,N
1456980175.0,286047001.2,N
1456980175.9,286047001.2,N
1456980195.8,286046999.9,N
1456980215.6,286046999.9,N
1456980235.4,286047000.6,N
1456980255.2,286046999.2,N
1456980275.1,286046999.4,N
1456980276.0,286046999.4,N
1456980295.8,286046999.6,N
1456980315.6,286046999.5,N
1456980335.5,286046998.0,N
1456980355.3,286046995.5,Y
1456980375.1,286046999.0,P
1456980395.9,286046999.5,P
1456980415.7,286046997.4,P
1456980435.5,286046997.6,N
1456980455.4,286046995.2,Y
1456980475.2,286046997.2,P
1456980495.0,286046999.1,N
1456980495.9,286046999.1,N
1456980515.8,286046999.4,N
1456980535.6,286046998.5,N
1456980555.4,286046999.8,N
1456980575.3,286047000.4,N
1456980595.1,286047000.5,N
1456980596.0,286047000.5,N
1456980615.8,286047003.6,Y
1456980635.7,286047007.9,P
1456980655.5,286047015.6,P
1456980675.3,286047018.1,N
1456980695.2,286047017.6,N
1456980715.0,286047018.7,N
1456980715.9,286047018.7,N
1456980735.7,286047014.7,N
1456980755.6,286047012.5,N
1456980775.4,286047012.5,N
1456980795.2,286047012.7,N
1456980815.1,286047012.9,N
1456980816.0,286047012.9,N
1456980835.8,286047016.9,Y
1456980855.6,286047000.3,P
1456980875.5,286046997.6,N
1456980895.3,286046999.1,N
1456980915.1,286046999.2,N
1456980935.9,286046999.2,N
1456980955.7,286047000.8,N
1456980975.5,286047003.7,N
1456980995.4,286047005.8,N
1456981015.2,286047004.5,N
1456981035.0,286047007.9,N
1456981035.9,286047007.9,N
1456981055.8,286047011.8,N
1456981075.6,286047012.1,N
1456981095.4,286047012.5,N
1456981115.2,286047015.0,N
1456981135.1,286047016.9,N
1456981136.0,286047016.9,N
1456981155.8,286047013.3,N
1456981175.6,286047008.3,N
1456981195.5,286047010.3,N
